Weather History for PATK - July, 2013

Change the Weather History Date:

Tuesday, July 16, 2013

  Actual Average Record
Temperature  
Mean Temperature 60 °F -  
Max Temperature 66 °F 66 °F 87 °F (2002)
Min Temperature 54 °F 49 °F 39 °F (1973)
Degree Days  
Heating Degree Days 5    
Growing Degree Days 10 (Base 50)    
Moisture  
Dew Point 53 °F    
Average Humidity 78    
Maximum Humidity 93    
Minimum Humidity 56    
Precipitation  
Precipitation 0.00 in - - ()
Sea Level Pressure  
Sea Level Pressure 30.20 in    
Wind  
Wind Speed 1 mph (South)    
Max Wind Speed 5 mph    
Max Gust Speed -    
Visibility 10 miles    
Events      
Averages and records for this station are not official NWS values.
T = Trace of Precipitation, MM = Missing Value Source: NWS Daily Summary

Daily Weather History Graph

Daily Weather History Graph

Search for Another Location

Airport or City:

Trip Planner

Search our weather history database for the weather conditions in past years. The results will help you decide how hot, cold, wet, or windy it might be!

Date:

Astronomy

Jul. 16, 2013 Rise Set
Actual Time 4:42 AM AKDT 11:28 PM AKDT
Civil Twilight 2:46 AM AKDT 1:18 AM AKDT
Nautical Twilight Sun does not set Sun does not set
Astronomical Twilight Sun does not set Sun does not set
Moon 4:29 PM AKDT (7/16) 12:25 AM AKDT (7/16)
Length of Visible Light 22h 31m
Length of Day
18h 45m
First Quarter, 58% of the Moon is Illuminated
Jul 16
First Quarter
Jul 22
Full
Jul 29
Last Quarter
Aug 6
New
Aug 14
First Quarter

Hourly Weather History & Observations

Time (AKDT) Temp. Dew Point Humidity Pressure Visibility Wind Dir Wind Speed Gust Speed Precip Events Conditions
12:53 AM 57.0 °F 53.1 °F 87% 30.25 in 10.0 mi Calm Calm - N/A   Clear
1:53 AM 55.9 °F 53.1 °F 90% 30.26 in 10.0 mi Calm Calm - N/A   Scattered Clouds
2:53 AM 54.0 °F 52.0 °F 93% 30.26 in 10.0 mi NE 3.5 mph - N/A   Overcast
3:53 AM 54.0 °F 52.0 °F 93% 30.25 in 10.0 mi Calm Calm - N/A   Overcast
4:16 AM 55.4 °F 51.8 °F 88% 30.23 in 10.0 mi Calm Calm - N/A   Overcast
4:53 AM 55.9 °F 53.1 °F 90% 30.24 in 10.0 mi Calm Calm - N/A   Overcast
5:24 AM 55.4 °F 51.8 °F 88% 30.24 in 10.0 mi Calm Calm - N/A   Overcast
5:53 AM 55.0 °F 52.0 °F 89% 30.24 in 10.0 mi Calm Calm - N/A   Overcast
6:53 AM 55.9 °F 52.0 °F 87% 30.24 in 10.0 mi Calm Calm - N/A   Overcast
7:53 AM 57.0 °F 53.1 °F 87% 30.24 in 10.0 mi Calm Calm - N/A   Overcast
8:53 AM 57.0 °F 53.1 °F 87% 30.23 in 10.0 mi Calm Calm - N/A   Overcast
9:53 AM 57.0 °F 52.0 °F 83% 30.23 in 10.0 mi Calm Calm - N/A   Overcast
10:53 AM 59.0 °F 53.1 °F 81% 30.23 in 10.0 mi Calm Calm - N/A   Overcast
11:53 AM 61.0 °F 51.1 °F 70% 30.22 in 10.0 mi Calm Calm - N/A   Overcast
12:53 PM 61.0 °F 52.0 °F 72% 30.22 in 10.0 mi South 3.5 mph - N/A   Overcast
1:53 PM 63.0 °F 53.1 °F 70% 30.20 in 10.0 mi South 4.6 mph - N/A   Mostly Cloudy
2:53 PM 64.9 °F 53.1 °F 65% 30.19 in 10.0 mi Calm Calm - N/A   Mostly Cloudy
3:53 PM 64.9 °F 53.1 °F 65% 30.18 in 10.0 mi Calm Calm - N/A   Overcast
4:53 PM 64.9 °F 53.1 °F 65% 30.17 in 10.0 mi Variable 3.5 mph - N/A   Overcast
5:53 PM 64.9 °F 53.1 °F 65% 30.16 in 10.0 mi SSW 4.6 mph - N/A   Overcast
6:53 PM 66.0 °F 54.0 °F 65% 30.15 in 10.0 mi SSW 4.6 mph - N/A   Overcast
7:53 PM 64.9 °F 54.0 °F 68% 30.15 in 10.0 mi Calm Calm - N/A   Overcast
8:53 PM 64.9 °F 54.0 °F 68% 30.14 in 10.0 mi South 3.5 mph - N/A   Mostly Cloudy
9:53 PM 64.0 °F 55.0 °F 73% 30.14 in 8.0 mi Calm Calm - N/A   Clear
10:53 PM 62.1 °F 55.9 °F 80% 30.13 in 10.0 mi Calm Calm - N/A   Clear
11:53 PM 62.1 °F 55.0 °F 78% 30.14 in 10.0 mi Calm Calm - N/A   Overcast